Location: Azul
(36.7830°S, 59.8500°W)
Time: 01:51:56
(UTC-03:00)

HuskySat-1 - Pass Details

Date: 28 October 2021
Orbit: 443 x 456 km, 51.6° (Epoch: 04 December)

Event Time Altitude Azimuth Distance (km) Brightness Sun altitude
Rises 20:22:24 0° 300° (WNW) 2,482 ? -10.8°
Reaches altitude 10° 20:24:34 10° 295° (WNW) 1,614 ? -11.2°
Maximum altitude 20:28:08 51° 217° (SW) 594 ? -11.8°
Drops below altitude 10° 20:31:44 10° 140° (SE) 1,629 ? -12.5°
Sets 20:33:56 0° 134° (SE) 2,509 ? -12.9°
